Location: Asheville, NC
(35.6000°N, 82.5500°W)
Time: 00:38:04
(UTC-04:00)

Vanguard 1 - Pass Details

Date: 14 March 2018
Orbit: 650 x 3833 km, 34.3° (Epoch: 17 June)

Event Time Altitude Azimuth Distance (km) Brightness Sun altitude
Rises 12:55:02 0° 270° (W) 7,856 14.5 50.7°
Reaches altitude 10° 13:00:17 10° 270° (W) 6,921 14.4 51.0°
Maximum altitude 13:24:07 85° 186° (S) 3,316 13.9 51.9°
Drops below altitude 10° 13:39:51 10° 100° (E) 4,879 13.8 52.1°
Sets 13:42:49 0° 100° (E) 5,550 14.0 52.0°
